PBO Station Position Time Series. Reference Frame : NAM14
Format Version,1.1.1
4-character ID,AV18
Station name,AugvNorth_AK2006
Begin Date, 2006-09-05
End Date, 2023-06-26
Release Date, 2023-06-27
Reference position, 59.3804329953 North Latitude, -153.4368345992 East Longitude, 367.19311 meters elevation,
Date, North (mm), East (mm), Vertical (mm), North Std. Deviation (mm), East Std. Deviation (mm),              Vertical Std. Deviation (mm), Quality,
2006-09-05,0.00, 0.00, 0.00, 2.69, 1.68, 8.43, repro,
2006-09-06,0.12, -1.36, 1.84, 2.61, 1.67, 8.18, repro,
2006-09-07,0.03, 0.17, 11.16, 2.70, 1.71, 8.47, repro,
2006-09-08,2.56, -0.90, 17.73, 2.67, 1.70, 8.34, repro,
2006-09-09,1.05, -1.81, 14.91, 2.50, 1.61, 7.91, repro,
2006-09-10,-1.74, -0.46, 3.75, 2.56, 1.65, 8.07, repro,
2006-09-11,-0.01, -1.16, 1.32, 2.60, 1.68, 8.16, repro,
2006-09-12,-1.48, -0.28, -2.81, 2.50, 1.63, 7.96, repro,
2006-09-13,2.59, -1.04, 3.08, 2.53, 1.64, 8.15, repro,
2006-09-14,-0.46, 0.22, 8.91, 2.63, 1.71, 8.37, repro,
2006-09-15,0.22, -4.37, 1.77, 2.58, 1.71, 8.28, repro,
2006-09-16,0.13, -3.48, 3.29, 2.56, 1.66, 8.05, repro,
2006-09-17,1.03, -1.92, -1.32, 2.49, 1.63, 7.96, repro,
2006-09-18,0.93, -1.70, 3.96, 2.44, 1.59, 7.82, repro,
2006-09-19,2.73, -1.93, 5.84, 2.54, 1.63, 8.21, repro,
2006-09-20,1.33, 0.43, 2.37, 2.44, 1.58, 7.79, repro,
2006-09-21,-1.11, -0.92, -4.47, 2.50, 1.62, 7.96, repro,
2006-09-22,2.03, 1.12, 5.96, 2.64, 1.70, 8.37, repro,
2006-09-23,0.23, 2.83, -0.60, 2.50, 1.63, 8.03, repro,
2006-09-24,3.71, -0.21, 0.66, 2.50, 1.63, 7.95, repro,
2006-09-25,1.46, -1.11, 1.35, 2.48, 1.61, 8.09, repro,
2006-09-26,4.33, -0.67, 1.44, 2.46, 1.60, 7.91, repro,
2006-09-27,0.81, -0.63, -3.38, 2.49, 1.62, 7.89, repro,
2006-09-28,0.48, -0.06, 0.79, 2.43, 1.59, 7.82, repro,
2006-09-29,2.38, 2.76, 6.58, 2.45, 1.59, 7.86, repro,
2006-09-30,0.75, 0.92, -0.32, 2.45, 1.58, 7.86, repro,
2006-10-01,2.80, -2.71, -3.10, 2.46, 1.59, 7.85, repro,
2006-10-02,3.23, -2.26, -2.19, 2.52, 1.62, 8.02, repro,
2006-10-03,5.50, -4.13, 2.46, 2.52, 1.64, 8.08, repro,
2006-10-04,2.25, 1.96, 2.57, 2.44, 1.59, 7.84, repro,
2006-10-05,1.44, 0.96, -1.60, 2.47, 1.60, 7.94, repro,
2006-10-06,0.45, 0.75, 5.03, 2.46, 1.59, 7.82, repro,
2006-10-07,3.01, -0.92, 2.91, 2.53, 1.63, 7.93, repro,
2006-10-08,7.66, -4.86, -3.66, 2.52, 1.63, 7.93, repro,
2006-10-09,2.51, -2.69, 3.79, 2.46, 1.62, 7.89, repro,
2006-10-10,5.28, -0.62, 0.59, 2.51, 1.62, 8.14, repro,
2006-10-11,1.18, 1.01, -8.80, 2.50, 1.60, 7.85, repro,
2006-10-12,-0.28, -0.39, -9.37, 2.50, 1.59, 7.84, repro,
2006-10-13,0.62, -1.97, -2.64, 2.47, 1.57, 7.80, repro,
2006-10-14,1.15, -0.20, 2.36, 2.43, 1.56, 7.72, repro,
2006-10-15,1.29, -1.80, -0.12, 2.51, 1.63, 7.98, repro,
2006-10-16,4.16, -2.50, -0.86, 2.47, 1.57, 7.87, repro,
2006-10-17,-2.26, 0.02, -2.54, 2.55, 1.62, 7.99, repro,
2006-10-18,2.37, -2.62, 8.01, 2.43, 1.57, 7.68, repro,
2006-10-19,0.32, -1.20, 1.89, 2.53, 1.66, 8.01, repro,
2006-10-20,-0.31, -0.24, -3.47, 2.61, 1.70, 8.08, repro,
2006-10-21,2.17, -0.53, 0.08, 2.55, 1.65, 8.03, repro,
2006-10-22,-1.50, -0.14, -2.71, 2.45, 1.60, 7.82, repro,
2006-10-23,0.10, 0.90, 4.58, 2.43, 1.57, 7.73, repro,
2006-10-24,1.62, -0.74, 9.98, 2.51, 1.63, 8.09, repro,
2006-10-25,0.63, 0.90, 11.80, 2.55, 1.68, 8.07, repro,
2006-10-26,-0.59, 0.26, 6.72, 2.52, 1.65, 8.00, repro,
2006-10-27,0.53, -0.97, -1.95, 2.41, 1.57, 7.74, repro,
2006-10-28,1.60, -0.19, -9.16, 2.44, 1.60, 7.83, repro,
2006-10-29,2.55, 0.86, -10.83, 2.43, 1.58, 7.81, repro,
2006-10-30,1.57, 2.94, -7.69, 2.42, 1.58, 7.76, repro,
2006-10-31,1.46, 0.66, -3.57, 2.49, 1.61, 8.00, repro,
2006-11-01,-1.57, -1.00, -11.50, 2.54, 1.63, 8.09, repro,
2006-11-02,-1.66, -1.49, -6.64, 2.45, 1.60, 7.86, repro,
2006-11-03,0.62, -2.05, -5.80, 2.48, 1.65, 8.12, repro,
2006-11-04,-0.82, -1.92, -10.69, 2.47, 1.62, 8.12, repro,
2006-11-05,-0.39, -1.14, -6.13, 2.44, 1.60, 7.88, repro,
2006-11-06,-0.60, -0.27, -1.29, 2.54, 1.64, 8.32, repro,
2006-11-07,-0.36, 0.22, -7.08, 2.50, 1.65, 8.40, repro,
2006-11-08,-1.29, -0.11, -1.43, 2.54, 1.67, 8.45, repro,
2006-11-09,1.03, -1.00, 5.47, 2.52, 1.64, 8.22, repro,
2006-11-10,-0.12, -0.08, -0.37, 2.49, 1.61, 8.16, repro,
2006-11-11,0.26, -0.56, -4.45, 2.53, 1.62, 8.18, repro,
2006-11-12,0.85, -0.10, -2.07, 2.55, 1.63, 8.26, repro,
2006-11-13,1.04, -0.98, 6.10, 2.63, 1.68, 8.68, repro,
2006-11-14,-1.66, 1.75, 1.96, 2.45, 1.57, 7.86, repro,
2006-11-15,1.23, 0.22, 2.97, 2.43, 1.57, 7.82, repro,
2006-11-16,2.36, 0.75, 5.89, 2.47, 1.58, 8.04, repro,
2006-11-17,1.58, 0.09, 6.90, 2.42, 1.55, 7.70, repro,
2006-11-18,-1.87, -0.87, -3.32, 2.54, 1.60, 8.25, repro,
2006-11-19,-0.67, 0.22, -0.09, 2.42, 1.56, 7.76, repro,
2006-11-20,-0.13, -0.81, 3.84, 2.42, 1.56, 7.71, repro,
2006-11-21,0.40, -0.92, -2.98, 2.41, 1.56, 7.74, repro,
2006-11-22,-0.98, -1.32, -8.38, 2.41, 1.55, 7.71, repro,
2006-11-23,-0.91, -2.11, -9.02, 2.49, 1.60, 7.92, repro,
2006-11-24,0.25, -1.84, -6.75, 2.53, 1.66, 8.10, repro,
2006-11-25,-0.08, -1.15, -1.96, 2.48, 1.61, 8.00, repro,
2006-11-26,0.70, -1.70, -3.62, 2.45, 1.60, 7.86, repro,
2006-11-27,2.67, -3.32, -6.99, 2.47, 1.60, 7.91, repro,
2006-11-28,1.62, -4.24, -2.23, 2.48, 1.60, 8.06, repro,
2006-11-29,-2.51, -0.79, -2.74, 2.47, 1.60, 8.01, repro,
2006-11-30,0.41, -0.58, -2.92, 2.46, 1.59, 7.96, repro,
2006-12-01,1.73, -0.10, -5.73, 2.44, 1.56, 7.78, repro,
2006-12-02,-2.70, -3.61, -17.30, 2.44, 1.57, 7.82, repro,
2006-12-03,-2.94, -1.06, -6.72, 2.43, 1.56, 7.82, repro,
2006-12-04,-0.84, -0.40, 1.87, 2.44, 1.58, 7.84, repro,
2006-12-05,-1.00, -6.02, -8.07, 2.49, 1.63, 8.09, repro,
2006-12-06,0.03, -5.29, 2.39, 2.50, 1.61, 8.06, repro,
2006-12-07,-0.59, -3.86, 12.95, 2.53, 1.64, 7.97, repro,
2006-12-08,1.70, -3.09, 14.54, 2.53, 1.62, 8.15, repro,
2006-12-09,0.17, -0.80, 12.86, 2.47, 1.60, 7.91, repro,
2006-12-10,7.10, -3.37, 8.68, 2.53, 1.62, 8.11, repro,
2006-12-11,-2.00, -0.95, 4.51, 2.46, 1.59, 7.83, repro,
2006-12-12,-0.64, 0.89, 7.02, 2.56, 1.67, 8.35, repro,
2006-12-13,-0.82, 0.40, 7.63, 2.48, 1.58, 7.70, repro,
2006-12-14,0.61, 2.54, 9.28, 2.44, 1.59, 7.69, repro,
2006-12-15,-1.56, 0.95, -3.42, 2.70, 1.73, 8.53, repro,
2006-12-16,0.19, 0.11, 2.79, 2.54, 1.65, 8.14, repro,
2006-12-17,-4.63, 1.43, -2.22, 2.53, 1.66, 8.18, repro,
2006-12-18,-3.93, 3.15, 2.20, 2.65, 1.75, 8.79, repro,
2006-12-19,-3.11, 0.22, 13.45, 2.59, 1.66, 8.15, repro,
2006-12-20,-2.91, 1.52, 4.91, 2.49, 1.61, 7.84, repro,
2006-12-21,-1.34, 1.61, 7.18, 2.48, 1.61, 7.93, repro,
2006-12-22,-0.43, -0.09, 3.18, 2.65, 1.72, 8.76, repro,
2006-12-23,-1.11, -0.41, 2.26, 2.62, 1.79, 8.57, repro,
2006-12-24,1.36, -0.83, -6.36, 2.48, 1.61, 7.78, repro,
2006-12-25,-0.31, 0.62, 5.48, 2.48, 1.62, 7.83, repro,
2006-12-26,-1.70, 2.66, -11.54, 2.55, 1.64, 7.95, repro,
2006-12-27,2.04, -1.89, 0.85, 2.59, 1.66, 8.00, repro,
2006-12-28,3.09, -1.02, -0.76, 2.68, 1.75, 8.68, repro,
2006-12-29,-3.89, 1.11, -1.73, 2.60, 1.65, 7.94, repro,
2006-12-30,-0.11, 1.04, -3.01, 2.57, 1.66, 7.98, repro,
2006-12-31,-0.74, -0.66, -3.11, 2.67, 1.70, 8.42, repro,
2007-01-01,-0.92, -0.82, -0.24, 2.70, 1.71, 8.45, repro,
2007-01-02,0.92, -2.32, 2.26, 2.62, 1.71, 8.48, repro,
2007-01-03,2.02, -1.39, 9.11, 2.56, 1.62, 7.87, repro,
2007-01-04,0.60, 0.58, 11.72, 2.57, 1.67, 7.88, repro,
2007-01-05,-2.80, 1.32, 1.13, 2.56, 1.63, 7.86, repro,
2007-01-06,-0.42, 0.52, -2.03, 2.50, 1.59, 7.68, repro,
2007-01-07,-0.57, -0.92, -7.46, 2.54, 1.62, 8.06, repro,
2007-01-08,-1.99, -1.47, -13.52, 2.57, 1.65, 8.25, repro,
2007-01-09,-1.81, -2.41, -17.98, 2.48, 1.60, 7.80, repro,
2007-01-10,2.53, -1.22, -11.27, 2.52, 1.61, 8.01, repro,
2007-01-11,1.88, -2.43, -16.78, 2.53, 1.63, 8.16, repro,
2007-01-12,1.93, -2.29, 2.33, 2.43, 1.59, 7.85, repro,
2007-01-13,2.85, -1.25, -6.36, 2.43, 1.57, 7.66, repro,
2007-01-14,-1.24, -0.83, -7.64, 2.40, 1.57, 7.59, repro,
2007-01-15,-1.36, 0.09, -6.99, 2.57, 1.72, 7.95, repro,
2007-01-16,1.60, -2.29, -5.27, 2.48, 1.59, 7.77, repro,
2007-01-17,1.25, -1.08, 4.21, 2.52, 1.64, 7.80, repro,
2007-01-18,0.90, -3.25, 4.70, 2.47, 1.61, 7.65, repro,
2007-01-19,1.86, -1.09, 2.93, 2.44, 1.63, 7.69, repro,
2007-01-20,3.34, -2.57, 5.65, 2.46, 1.62, 7.71, repro,
2007-01-21,5.64, -0.38, 7.95, 2.45, 1.60, 7.84, repro,
2007-01-22,4.21, -0.74, 3.61, 2.41, 1.56, 7.58, repro,
2007-01-23,3.55, -1.19, -2.28, 2.41, 1.56, 7.53, repro,
2007-01-24,3.75, 0.29, -2.46, 2.49, 1.64, 7.73, repro,
2007-01-25,3.02, -0.69, 3.95, 2.46, 1.61, 7.74, repro,
2007-01-26,1.01, -1.45, 1.55, 2.48, 1.58, 7.79, repro,
2007-01-27,2.59, -4.73, -16.30, 2.47, 1.59, 7.76, repro,
2007-01-28,0.35, -2.25, -8.93, 2.58, 1.64, 8.04, repro,
2007-01-29,-0.24, -4.54, -18.86, 2.47, 1.59, 7.78, repro,
2007-01-30,6.13, -6.65, -4.21, 2.43, 1.58, 7.68, repro,
2007-01-31,4.81, -10.16, -24.58, 2.44, 1.59, 7.79, repro,
2007-02-01,4.24, -6.39, -16.04, 2.46, 1.60, 7.56, repro,
2007-02-02,7.03, -4.75, -5.91, 2.45, 1.61, 7.88, repro,
2007-02-03,2.88, -2.28, -4.07, 2.41, 1.58, 7.67, repro,
2007-02-04,-0.51, 0.01, -9.70, 2.48, 1.63, 7.87, repro,
2007-02-05,0.33, -0.36, -8.04, 2.40, 1.58, 7.63, repro,
2007-02-06,-1.85, -1.65, -16.70, 2.47, 1.64, 8.28, repro,
2007-02-07,1.68, -2.07, -4.74, 2.46, 1.59, 7.78, repro,
2007-02-08,0.10, -0.12, -10.57, 2.49, 1.63, 7.88, repro,
2007-02-09,1.59, -0.49, -10.86, 2.41, 1.60, 7.56, repro,
2007-02-10,6.77, -0.43, 0.62, 2.39, 1.56, 7.62, repro,
2007-02-11,5.94, -0.57, 6.73, 2.43, 1.61, 7.99, repro,
2007-02-12,4.66, -0.51, 12.21, 2.45, 1.61, 8.04, repro,
2007-02-13,5.11, -4.96, 4.01, 2.43, 1.59, 7.66, repro,
2007-02-14,6.96, -5.57, 4.34, 2.42, 1.59, 7.72, repro,
2007-02-15,6.27, -0.99, 10.31, 2.50, 1.64, 8.22, repro,
2007-02-16,6.64, -0.15, 5.67, 2.46, 1.59, 7.78, repro,
2007-02-17,5.88, 0.24, 1.71, 2.58, 1.62, 7.93, repro,
2007-02-18,4.57, -0.14, 8.93, 2.49, 1.67, 7.71, repro,
2007-02-19,3.64, 0.06, 8.04, 2.40, 1.56, 7.54, repro,
2007-02-20,2.14, -0.78, -3.23, 2.41, 1.57, 7.69, repro,
2007-02-21,4.36, -1.75, 4.53, 2.42, 1.55, 7.56, repro,
2007-02-22,3.33, -2.35, -1.84, 2.41, 1.55, 7.56, repro,
2007-02-23,3.28, -2.09, 3.01, 2.53, 1.72, 8.03, repro,
2007-02-24,2.69, -2.10, -5.25, 2.40, 1.55, 7.51, repro,
2007-02-25,2.62, -1.78, -9.82, 2.36, 1.54, 7.43, repro,
2007-02-26,5.21, -2.32, -3.70, 2.41, 1.58, 7.60, repro,
2007-02-27,2.90, -1.38, -3.34, 2.41, 1.55, 7.59, repro,
2007-02-28,2.47, -1.47, -8.63, 2.40, 1.56, 7.58, repro,
2007-03-01,2.17, -1.42, -12.30, 2.56, 1.63, 7.84, repro,
2007-03-02,2.98, -1.85, -8.72, 2.50, 1.63, 7.71, repro,
2007-03-03,2.35, -2.03, -11.84, 2.47, 1.59, 7.71, repro,
2007-03-04,1.64, -1.13, -12.86, 2.44, 1.58, 7.66, repro,
2007-03-05,0.96, -1.23, -5.02, 2.48, 1.58, 7.78, repro,
2007-03-06,0.58, -0.94, -3.23, 2.59, 1.63, 8.04, repro,
2007-03-07,2.94, -0.32, -3.00, 2.44, 1.58, 7.61, repro,
2007-03-08,1.52, -0.51, -1.41, 2.50, 1.63, 7.72, repro,
2007-03-09,0.42, -0.34, -0.22, 2.42, 1.58, 7.61, repro,
2007-03-10,0.82, -0.96, 1.00, 2.51, 1.61, 7.78, repro,
2007-03-11,0.71, -1.10, -2.99, 2.49, 1.59, 7.83, repro,
2007-03-12,0.01, -0.03, -4.96, 2.49, 1.60, 7.83, repro,
2007-03-13,2.75, 0.16, -10.93, 2.42, 1.63, 7.64, repro,
2007-03-14,5.19, -0.62, -14.36, 2.38, 1.57, 7.58, repro,
2007-03-15,0.70, -2.59, -19.02, 2.86, 1.84, 8.73, repro,
2007-03-16,1.75, -1.20, -7.79, 2.49, 1.59, 7.82, repro,
2007-03-17,0.43, -0.04, -5.83, 2.45, 1.60, 7.85, repro,
2007-03-18,2.66, 0.21, -7.36, 2.43, 1.57, 7.70, repro,
2007-03-19,2.13, -0.50, -6.29, 2.46, 1.58, 7.84, repro,
2007-03-20,2.58, -2.43, -0.69, 2.52, 1.68, 7.94, repro,
2007-03-21,-0.17, -0.33, 5.72, 2.48, 1.61, 7.81, repro,
2007-03-22,1.41, 2.63, 5.62, 2.46, 1.63, 7.75, repro,
2007-03-23,-1.06, 1.15, 2.64, 2.44, 1.60, 7.84, repro,
2007-03-24,0.07, 1.29, -1.70, 2.47, 1.60, 8.00, repro,
2007-03-25,0.75, 1.11, -1.59, 2.46, 1.63, 7.86, repro,
2007-03-26,2.59, -1.21, -5.30, 2.43, 1.62, 7.75, repro,
2007-03-27,0.39, 0.78, -15.74, 2.39, 1.58, 7.79, repro,
2007-03-28,-1.24, -0.30, -21.60, 2.49, 1.66, 8.32, repro,
2007-03-29,1.29, 0.27, -12.27, 2.46, 1.65, 7.84, repro,
2007-03-30,0.11, -0.19, -16.69, 2.45, 1.58, 7.87, repro,
2007-03-31,0.09, -0.58, -18.33, 2.41, 1.57, 7.71, repro,
2007-04-01,0.24, 0.01, -20.14, 2.38, 1.57, 7.65, repro,
2007-04-02,-1.86, -1.18, -22.98, 2.40, 1.57, 7.70, repro,
2007-04-03,-3.18, -3.58, -10.59, 2.40, 1.58, 7.77, repro,
2007-04-04,-2.98, -4.88, -24.16, 2.50, 1.62, 8.05, repro,
2007-04-05,-4.00, -2.37, -10.60, 2.44, 1.59, 7.89, repro,
2007-04-06,1.38, -5.12, -3.91, 2.47, 1.65, 7.90, repro,
2007-04-07,1.27, -4.11, 3.20, 2.40, 1.59, 7.62, repro,
2007-04-08,-1.61, -2.91, 0.48, 2.44, 1.59, 7.86, repro,
2007-04-09,-1.92, -3.34, -3.06, 2.47, 1.60, 7.97, repro,
2007-04-10,-5.56, -0.53, -5.41, 2.56, 1.64, 7.97, repro,
2007-04-11,-3.60, 0.77, -17.36, 2.46, 1.60, 7.93, repro,
2007-04-12,-2.17, -1.47, -9.69, 2.46, 1.64, 7.75, repro,
2007-04-13,0.85, 0.21, -3.78, 2.42, 1.59, 7.60, repro,
2007-04-14,-0.63, 0.56, -1.05, 2.42, 1.58, 7.59, repro,
2007-04-15,0.00, -1.75, -0.92, 2.41, 1.56, 7.56, repro,
2007-04-16,0.83, 0.22, -8.57, 2.42, 1.59, 7.77, repro,
2007-04-17,-1.60, -0.80, -16.45, 2.37, 1.56, 7.50, repro,
2007-04-18,-1.45, -2.02, -5.10, 2.37, 1.56, 7.54, repro,
2007-04-19,0.56, -2.45, -8.17, 2.42, 1.58, 7.60, repro,
2007-04-20,-1.13, -0.67, -7.17, 2.40, 1.57, 7.67, repro,
2007-04-21,-1.32, -1.55, -9.89, 2.56, 1.68, 8.36, repro,
2007-04-22,-3.03, -1.37, -9.93, 2.43, 1.61, 7.84, repro,
2007-04-23,-2.68, -3.05, -0.12, 2.51, 1.66, 7.85, repro,
2007-04-24,0.56, -2.94, -3.07, 2.45, 1.60, 7.71, repro,
2007-04-25,0.88, -3.71, 0.23, 2.47, 1.60, 7.82, repro,
2007-04-26,0.22, -1.27, 0.06, 2.46, 1.60, 7.98, repro,
2007-04-27,-1.15, 0.14, -3.77, 2.44, 1.59, 7.78, repro,
2007-04-28,0.02, -1.12, -6.78, 2.42, 1.59, 7.70, repro,
2007-04-29,-3.41, -1.87, -13.28, 2.37, 1.57, 7.57, repro,
2007-04-30,-1.99, -2.99, -10.40, 2.37, 1.56, 7.50, repro,
2007-05-01,1.74, -1.83, -2.53, 2.37, 1.57, 7.51, repro,
2007-05-02,0.60, -2.82, -11.54, 2.45, 1.61, 7.71, repro,
2007-05-03,-0.94, -0.39, -8.90, 2.47, 1.61, 7.77, repro,
2007-05-04,-1.17, -0.77, -15.28, 2.48, 1.66, 7.87, repro,
2007-05-05,-0.33, 0.30, -10.16, 2.41, 1.58, 7.66, repro,
2007-05-06,0.12, 1.23, -12.02, 2.38, 1.57, 7.54, repro,
2007-05-07,2.67, 1.26, -2.85, 2.39, 1.57, 7.53, repro,
2007-05-08,0.49, 0.20, -6.19, 2.36, 1.57, 7.47, repro,
2007-05-09,-0.33, 0.38, -13.59, 2.39, 1.57, 7.49, repro,
2007-05-10,0.59, -0.34, -13.70, 2.46, 1.65, 8.06, repro,
2007-05-11,-1.99, -0.34, -16.46, 2.44, 1.63, 7.94, repro,
2007-05-12,-2.75, 2.08, -10.65, 2.39, 1.57, 7.51, repro,
2007-05-13,1.18, -2.62, -6.11, 2.44, 1.60, 7.55, repro,
2007-05-14,2.46, -2.61, -4.70, 2.48, 1.62, 7.64, repro,
2007-05-15,-0.41, -0.08, -11.36, 2.35, 1.57, 7.42, repro,
2007-05-16,-0.24, -1.38, -10.14, 2.38, 1.57, 7.50, repro,
2007-05-17,-1.97, -0.01, -10.57, 2.43, 1.59, 7.61, repro,
2007-05-18,-0.28, -0.00, -13.16, 2.50, 1.62, 7.89, repro,
2007-05-19,1.17, 0.45, -12.67, 2.49, 1.64, 7.72, repro,
2007-05-20,0.77, 1.30, -6.11, 2.36, 1.55, 7.40, repro,
2007-05-21,0.79, 1.18, -13.84, 2.36, 1.56, 7.45, repro,
2007-05-22,1.18, 0.73, -10.28, 2.40, 1.58, 7.65, repro,
2007-05-23,-1.13, 0.62, -1.95, 2.37, 1.56, 7.53, repro,
2007-05-24,-2.51, 0.46, -10.13, 2.44, 1.61, 7.70, repro,
2007-05-25,0.67, 1.35, 3.41, 2.36, 1.56, 7.43, repro,
2007-05-26,-1.27, -0.26, -2.80, 2.33, 1.56, 7.39, repro,
2007-05-27,-1.47, -0.33, -11.66, 2.37, 1.56, 7.47, repro,
2007-05-28,0.41, 0.44, -8.73, 2.35, 1.56, 7.43, repro,
2007-05-29,-0.36, 0.45, -4.05, 2.36, 1.55, 7.36, repro,
2007-05-30,0.46, -0.12, -3.00, 2.40, 1.57, 7.57, repro,
2007-05-31,0.47, 0.83, -1.92, 2.38, 1.56, 7.51, repro,
2007-06-01,0.36, -1.14, -3.00, 2.37, 1.56, 7.47, repro,
2007-06-02,0.43, 1.41, -7.37, 2.38, 1.57, 7.49, repro,
2007-06-03,-0.80, 0.64, -12.51, 2.37, 1.56, 7.45, repro,
2007-06-04,2.16, 0.03, -9.24, 2.38, 1.56, 7.48, repro,
2007-06-05,0.86, 0.47, -5.90, 2.41, 1.58, 7.67, repro,
2007-06-06,0.15, 0.52, 0.79, 2.40, 1.57, 7.54, repro,
2007-06-07,-0.72, -0.34, -0.30, 2.41, 1.59, 7.67, repro,
2007-06-08,-0.12, -2.68, -6.06, 2.36, 1.57, 7.46, repro,
2007-06-09,3.74, -0.11, -7.39, 2.36, 1.57, 7.41, repro,
2007-06-10,0.33, 0.89, -6.50, 2.43, 1.58, 7.60, repro,
2007-06-11,1.30, 2.05, -1.17, 2.43, 1.59, 7.59, repro,
2007-06-12,0.17, 2.67, -8.58, 2.47, 1.62, 7.79, repro,
2007-06-13,1.03, 1.21, -9.70, 2.38, 1.57, 7.47, repro,
2007-06-14,1.24, 0.51, -15.67, 2.37, 1.58, 7.43, repro,
2007-06-15,2.70, 0.99, -14.87, 2.42, 1.63, 7.54, repro,
2007-06-16,0.94, 2.05, -15.18, 2.41, 1.57, 7.55, repro,
2007-06-17,2.17, 1.97, -9.25, 2.39, 1.57, 7.49, repro,
2007-06-18,2.64, 1.08, -7.24, 2.39, 1.56, 7.49, repro,
2007-06-19,1.77, 0.86, -6.83, 2.37, 1.57, 7.44, repro,
2007-06-20,1.86, 2.20, -8.67, 2.37, 1.57, 7.40, repro,
2007-06-21,4.56, 3.60, -3.15, 2.41, 1.57, 7.55, repro,
2007-06-22,3.13, 1.16, 0.90, 2.41, 1.56, 7.50, repro,
2007-06-23,0.65, 0.50, -6.08, 2.41, 1.56, 7.48, repro,
2007-06-24,1.20, 1.39, -3.02, 2.45, 1.60, 7.56, repro,
2007-06-25,-0.70, -0.58, -11.07, 2.36, 1.57, 7.42, repro,
2007-06-26,0.94, -0.25, -9.46, 2.38, 1.57, 7.46, repro,
2007-06-27,1.72, 0.29, -10.09, 2.38, 1.57, 7.48, repro,
2007-06-28,1.38, 0.01, -9.97, 2.38, 1.56, 7.47, repro,
2007-06-29,1.08, 0.87, -1.46, 2.43, 1.60, 7.72, repro,
2007-06-30,0.40, 0.91, -5.42, 2.39, 1.57, 7.48, repro,
2007-07-01,0.65, 0.63, -13.38, 2.37, 1.58, 7.46, repro,
2007-07-02,1.52, -0.39, -6.96, 2.39, 1.58, 7.49, repro,
2007-07-03,2.18, -0.82, -14.85, 2.41, 1.58, 7.61, repro,
2007-07-04,-0.72, 0.50, -7.49, 2.45, 1.59, 7.62, repro,
2007-07-05,0.95, 1.78, 1.08, 2.38, 1.56, 7.48, repro,
2007-07-06,1.45, 1.40, -4.88, 2.38, 1.58, 7.51, repro,
2007-07-07,2.77, -0.02, -6.35, 2.39, 1.57, 7.50, repro,
2007-07-08,0.72, 1.03, -13.68, 2.42, 1.58, 7.62, repro,
2007-07-09,1.49, 0.53, -12.18, 2.37, 1.57, 7.45, repro,
2007-07-10,0.30, 0.36, -1.63, 2.39, 1.57, 7.50, repro,
2007-07-11,1.87, 0.79, -6.84, 2.40, 1.58, 7.55, repro,
2007-07-12,2.47, 0.49, -6.66, 2.43, 1.59, 7.68, repro,
2007-07-13,-0.45, 0.07, -9.04, 2.46, 1.62, 7.70, repro,
2007-07-14,0.68, 0.65, -9.29, 2.41, 1.56, 7.51, repro,
2007-07-15,3.17, 1.32, -4.10, 2.39, 1.56, 7.46, repro,
2007-07-16,0.68, 0.10, -1.89, 2.45, 1.58, 7.70, repro,
2007-07-17,2.82, 1.39, 4.91, 2.42, 1.57, 7.50, repro,
2007-07-18,1.80, -2.87, -5.92, 2.47, 1.58, 7.74, repro,
2007-07-19,1.53, 0.33, -2.74, 2.39, 1.57, 7.53, repro,
2007-07-20,3.41, -0.62, 1.71, 2.38, 1.56, 7.46, repro,
2007-07-21,2.04, 1.03, 3.19, 2.36, 1.56, 7.47, repro,
2007-07-22,0.54, -1.12, -0.27, 2.36, 1.56, 7.46, repro,
2007-07-23,-0.78, -0.07, 6.31, 2.37, 1.56, 7.48, repro,
2007-07-24,2.01, -2.12, -2.72, 2.36, 1.56, 7.46, repro,
2007-07-25,2.30, -1.83, 1.38, 2.37, 1.55, 7.48, repro,
2007-07-26,0.91, 0.24, 4.70, 2.36, 1.55, 7.37, repro,
2007-07-27,0.83, 0.02, -3.34, 2.36, 1.55, 7.37, repro,
2007-07-28,2.52, 0.22, 5.94, 2.37, 1.56, 7.44, repro,
2007-07-29,1.02, -0.52, 3.38, 2.37, 1.56, 7.46, repro,
2007-07-30,1.32, 0.20, 0.40, 2.37, 1.56, 7.44, repro,
2007-07-31,0.80, 0.69, -7.32, 2.38, 1.55, 7.43, repro,
2007-08-01,-1.31, 1.36, -17.55, 2.38, 1.56, 7.41, repro,
2007-08-02,-1.22, -0.39, -5.03, 2.41, 1.58, 7.61, repro,
2007-08-03,-0.44, -2.50, 1.30, 2.40, 1.57, 7.51, repro,
2007-08-04,3.46, -3.87, 5.37, 2.38, 1.57, 7.49, repro,
2007-08-05,0.78, 1.62, -6.98, 2.36, 1.55, 7.40, repro,
2007-08-06,4.81, 6.17, -7.71, 2.45, 1.61, 7.63, repro,
2007-08-07,-0.04, 2.79, 1.32, 2.43, 1.59, 7.54, repro,
2007-08-08,2.32, -0.05, -0.32, 2.41, 1.58, 7.66, repro,
2007-08-09,0.48, 1.02, 0.89, 2.40, 1.55, 7.44, repro,
2007-08-10,1.96, 0.29, -2.15, 2.37, 1.55, 7.39, repro,
2007-08-11,0.68, -0.20, -1.05, 2.35, 1.55, 7.36, repro,
2007-08-12,-2.25, -0.17, -2.68, 2.37, 1.56, 7.50, repro,
2007-08-13,3.14, 0.40, 3.36, 2.39, 1.58, 7.60, repro,
2007-08-14,4.18, 0.34, 5.73, 2.62, 1.68, 8.10, repro,
2007-08-15,-0.10, 0.47, -1.43, 2.57, 1.66, 7.98, repro,
2007-08-16,1.48, 0.34, 5.57, 2.45, 1.60, 7.74, repro,
2007-08-17,-2.23, -0.76, 1.22, 2.48, 1.64, 7.96, repro,
2007-08-18,2.42, -1.90, 11.36, 2.59, 1.67, 8.11, repro,
2007-08-19,-0.50, -0.27, 14.87, 2.53, 1.66, 7.89, repro,
2007-08-20,0.11, -1.05, 10.38, 2.46, 1.61, 7.77, repro,
2007-08-21,1.96, -0.87, 2.90, 2.46, 1.61, 7.70, repro,
2007-08-22,-2.58, -0.28, -4.80, 2.47, 1.60, 7.67, repro,
2007-08-23,1.25, -1.33, 1.17, 2.39, 1.57, 7.58, repro,
2007-08-24,0.72, 0.77, 7.56, 2.46, 1.65, 8.04, repro,
2007-08-25,0.34, 0.05, 4.22, 2.49, 1.64, 7.89, repro,
2007-08-26,-2.21, -0.61, 3.62, 2.55, 1.67, 8.00, repro,
2007-08-27,0.82, -3.04, 0.12, 2.54, 1.67, 7.91, repro,
2007-08-28,0.50, -1.83, 0.59, 2.46, 1.62, 7.78, repro,
2007-08-29,1.89, -0.47, 5.34, 2.46, 1.63, 7.78, repro,
2007-08-30,0.71, 1.75, 0.29, 2.49, 1.69, 7.90, repro,
2007-08-31,1.56, 0.63, 8.00, 2.51, 1.66, 8.02, repro,
2007-09-01,2.66, 0.75, 0.44, 2.49, 1.63, 7.91, repro,
2007-09-02,0.08, 1.07, 3.08, 2.46, 1.63, 7.78, repro,
2007-09-03,0.71, -0.34, 1.50, 2.46, 1.63, 7.78, repro,
2007-09-04,-1.66, -2.77, 4.07, 2.43, 1.63, 7.74, repro,
2007-09-05,-0.78, 1.86, 5.26, 2.48, 1.65, 7.95, repro,
2007-09-06,0.11, 1.32, -0.17, 2.49, 1.66, 8.02, repro,
2007-09-07,-3.01, 0.36, -4.62, 2.49, 1.63, 7.89, repro,
2007-09-08,-1.57, 0.03, -2.94, 2.52, 1.67, 7.92, repro,
2007-09-09,-5.70, 1.09, -8.75, 2.49, 1.67, 7.83, repro,
2007-09-10,-1.81, -0.66, 1.00, 2.46, 1.63, 7.81, repro,
2007-09-11,-3.06, -1.77, 4.36, 2.47, 1.65, 7.85, repro,
2007-09-12,-0.80, -0.24, 0.73, 2.49, 1.64, 7.97, repro,
2007-09-13,-0.69, 1.50, -4.32, 2.49, 1.63, 7.91, repro,
2007-09-14,-1.91, 1.98, -1.45, 2.52, 1.65, 7.87, repro,
2007-09-15,-0.43, 4.50, 2.04, 2.49, 1.70, 7.95, repro,
2007-09-16,1.03, 2.66, 3.13, 2.46, 1.63, 7.78, repro,
2007-09-17,0.40, 1.37, 6.13, 2.47, 1.64, 7.85, repro,
2007-09-18,-1.76, -0.09, -8.06, 2.48, 1.62, 7.89, repro,
2007-09-19,-0.14, 0.74, 5.55, 2.40, 1.56, 7.56, repro,
2007-09-20,-1.21, 2.98, 1.78, 2.35, 1.55, 7.38, repro,
2007-09-21,1.39, 4.14, 6.85, 2.38, 1.56, 7.55, repro,
2007-09-22,-0.22, -0.20, 2.93, 2.37, 1.56, 7.47, repro,
2007-09-23,0.36, 0.55, 2.17, 2.38, 1.56, 7.49, repro,
2007-09-24,2.18, 0.83, 8.72, 2.44, 1.57, 7.71, repro,
2007-09-25,2.45, 3.15, 6.87, 2.42, 1.58, 7.69, repro,
2007-09-26,-0.62, 3.75, 5.24, 2.35, 1.55, 7.34, repro,
2007-09-27,-1.17, 3.09, 0.69, 2.42, 1.60, 7.57, repro,
2007-09-28,0.12, -1.25, 3.13, 2.40, 1.56, 7.50, repro,
2007-09-29,0.05, 1.19, 6.29, 2.39, 1.56, 7.53, repro,
2007-09-30,-0.07, 2.58, 4.10, 2.45, 1.57, 7.66, repro,
2007-10-01,-1.27, 2.22, 4.79, 2.46, 1.59, 7.64, repro,
2007-10-02,-0.97, 6.02, 7.72, 2.49, 1.63, 7.59, repro,
2007-10-03,2.66, 1.61, 4.72, 2.43, 1.59, 7.60, repro,
2007-10-04,-1.11, -0.05, 2.06, 2.45, 1.59, 7.59, repro,
2007-10-05,-0.07, 0.42, 10.63, 2.40, 1.56, 7.52, repro,
2007-10-06,1.77, 2.88, 10.29, 2.42, 1.57, 7.58, repro,
2007-10-07,-0.00, 2.01, -0.94, 2.41, 1.56, 7.60, repro,
2007-10-08,-0.03, 1.13, -2.20, 2.53, 1.67, 7.94, repro,
2007-10-09,1.17, 0.17, -1.42, 2.54, 1.70, 7.94, repro,
2007-10-10,5.02, 0.21, 3.81, 2.51, 1.65, 8.01, repro,
2007-10-11,0.89, 1.52, 11.39, 2.42, 1.57, 7.62, repro,
2007-10-12,0.77, -0.33, 0.99, 2.39, 1.56, 7.52, repro,
2007-10-13,-0.13, 2.67, -1.64, 2.37, 1.55, 7.43, repro,
2007-10-14,0.73, 1.98, 6.10, 2.38, 1.55, 7.49, repro,
2007-10-15,-0.54, 0.98, 6.80, 2.39, 1.56, 7.55, repro,
2007-10-16,-0.32, 0.20, 3.64, 2.40, 1.57, 7.57, repro,
2007-10-17,-0.48, 0.83, -0.99, 2.47, 1.61, 7.80, repro,
2007-10-18,-1.44, 1.76, 4.93, 2.44, 1.59, 7.61, repro,
2007-10-19,0.33, 1.76, 6.27, 2.37, 1.56, 7.48, repro,
2007-10-20,1.52, -0.63, 4.79, 2.38, 1.56, 7.51, repro,
2007-10-21,3.64, -2.97, 8.73, 2.37, 1.56, 7.49, repro,
2007-10-22,2.05, -0.24, 7.39, 2.46, 1.62, 7.74, repro,
2007-10-23,1.28, 1.32, -3.59, 2.44, 1.60, 7.64, repro,
2007-10-24,1.47, 2.93, -3.48, 2.44, 1.59, 7.61, repro,
2007-10-25,-0.46, -0.68, 4.17, 2.44, 1.59, 7.62, repro,
2007-10-26,3.19, 0.06, 0.11, 2.48, 1.61, 7.80, repro,
2007-10-27,2.30, -2.73, -0.74, 2.43, 1.59, 7.62, repro,
2007-10-28,2.09, -2.22, -1.26, 2.44, 1.60, 7.61, repro,
2007-10-29,1.86, -3.03, -2.14, 2.41, 1.58, 7.52, repro,
2007-10-30,-0.92, -0.42, 6.78, 2.42, 1.57, 7.51, repro,
2007-10-31,-1.46, 6.11, -0.90, 2.44, 1.58, 7.63, repro,